Location: Avon Lake
(41.5219°N, 93.5010°W)
Time: 08:19:34
(UTC+00:00)

BlueWalker 3 - Pass Details

Date: 04 December 2022
Orbit: 499 x 517 km, 53.2° (Epoch: 07 February)

Event Time Altitude Azimuth Distance (km) Brightness Sun altitude
Rises 23:17:12 0° 300° (WNW) 2,632 6.1 -6.3°
Reaches altitude 10° 23:20:15 10° 325° (NW) 1,740 4.8 -6.9°
Maximum altitude 23:22:32 15° 0° (N) 1,461 4.1 -7.2°
Drops below altitude 10° 23:24:48 10° 36° (NE) 1,732 4.1 -7.6°
Enters shadow 23:25:27 - 43° (NE) 1,889 4.3 -7.7°
